Terminal Aerodrome Forecast
Issued by NWS

Home | Current Version | Previous Version | Text Only | Print | Product List | Glossary On
Versions: 1 2 3 4 5 6 7 8 9 10 11 12 13 14 15 16 17 18 19 20 21 22 23 24 25 26 27 28 29 30 31 32 33 34
209
FTUS45 KGJT 281124
TAFCNY
TAF
KCNY 281124Z 2812/2912 16005KT P6SM FEW250
     FM282200 23008KT P6SM SCT100 SCT250
     FM290200 29006KT P6SM SCT250
     FM290600 00000KT P6SM SCT250=

USA.gov is the U.S. government's official web portal to all federal, state and local government web resources and services.